This demonstration page uses our WeatherBlox Daily Observations layout. Learn more.

Left ArrowRight Arrow

Hourly Observations for December 23, 2020

Temp ( °F °C ) Dew Point ( °F °C ) Humidity (%) Winds ( mph kmh ) Pressure ( in mb ) Visibility ( mi km ) Precip ( " mm )
12:15 am 00:15 Clear 40 4.7 31 -0.8 68 68 W 13 20 29.41 996 10 16 N/A
12:35 am 00:35 Clear 43 6.2 32 undefined 65 65 WNW 17 28 29.41 996 10 16 N/A
12:55 am 00:55 Clear 42 5.7 33 0.6 70 70 WNW 21 33 29.43 997 10 16 N/A
1:15 am 01:15 Clear 45 7.1 37 2.6 73 73 NW 25 41 29.43 997 10 16 N/A
1:35 am 01:35 Mostly Cloudy 46 7.7 37 3 72 72 NW 31 50 29.43 997 10 16 N/A
1:55 am 01:55 Cloudy 46 7.6 37 2.6 71 71 NW 30 48 29.44 997 10 16 N/A
2:15 am 02:15 Mostly Cloudy 44 6.8 36 2.4 74 74 NW 23 37 29.46 998 10 16 N/A
2:35 am 02:35 Mostly Cloudy 42 5.4 35 1.6 77 77 NNW 28 44 29.50 999 10 16 N/A
2:55 am 02:55 Cloudy 40 4.2 33 0.6 78 78 NW 24 39 29.57 1002 10 16 N/A
3:15 am 03:15 Cloudy with Light Rain 37 2.7 33 0.3 84 84 NW 21 33 29.61 1003 4 6 N/A
3:30 am 03:30 Cloudy with Snow 34 1.2 32 undefined 92 92 NNW 23 37 29.63 1003 1 1 0.01 0.25
5:35 am 05:35 undefined 32 undefined 27 -2.9 81 81 NW 30 48 29.72 1007 N/A N/A
5:55 am 05:55 Cloudy 32 -0.2 26 -3.5 79 79 NW 35 56 29.74 1007 10 16 N/A
6:40 am 06:40 undefined N/A N/A N/A NW 38 61 N/A N/A N/A
6:55 am 06:55 Partly Cloudy with Isolated Snow Showers 28 -2.3 21 -5.9 77 77 NNW 26 43 29.81 1009 5 8 N/A
7:15 am 07:15 Windy with Snow Likely 27 -2.8 22 -5.6 81 81 NW 32 52 29.82 1010 3 4 N/A
7:35 am 07:35 Windy with Snow Likely 25 -3.7 22 -5.6 87 87 NW 30 48 29.86 1011 1 2 N/A
7:55 am 07:55 Windy with Snow Likely 25 -4.1 22 -5.7 89 89 NW 30 48 29.88 1012 1 1 N/A
8:15 am 08:15 Windy with Snow Likely 24 -4.6 21 -6.2 89 89 NW 29 46 29.90 1012 1 1 N/A
8:35 am 08:35 Windy with Snow Likely 23 -5.1 20 -6.7 89 89 WNW 26 43 29.92 1013 1 2 N/A
8:55 am 08:55 Cloudy with Snow 22 -5.7 19 -7.2 89 89 NW 33 54 29.93 1014 1 1 N/A
9:15 am 09:15 Windy with Snow Likely 22 -5.5 19 -7.2 88 88 NW 33 54 29.94 1014 1 1 N/A
9:35 am 09:35 Windy with Snow Likely 22 -5.4 19 -7.4 86 86 NW 25 41 29.95 1014 2 2 N/A
9:55 am 09:55 Cloudy with Snow 22 -5.5 19 -7.1 89 89 NW 25 41 29.98 1015 1 1 N/A
10:15 am 10:15 Windy with Snow Likely 22 -5.3 19 -7.3 86 86 NW 25 41 30.00 1016 1 2 N/A
10:35 am 10:35 Cloudy with Snow 22 -5.3 20 -6.9 89 89 NW 24 39 30.00 1016 1 1 N/A
10:55 am 10:55 Windy with Snow Likely 23 -5 20 -6.5 89 89 NW 24 39 30.00 1016 1 2 N/A
11:15 am 11:15 Windy with Snow Likely 23 -4.8 21 -6.3 89 89 NW 23 37 30.01 1016 1 2 N/A
11:35 am 11:35 Windy with Snow Likely 24 -4.5 21 -6 89 89 NW 23 37 30.02 1017 1 2 N/A
11:55 am 11:55 Cloudy with Snow 24 -4.2 22 -5.6 90 90 NNW 20 31 30.03 1017 1 1 N/A
12:15 pm 12:15 Cloudy with Snow 24 -4.3 22 -5.7 90 90 NNW 31 50 30.03 1017 1 1 N/A
12:35 pm 12:35 Cloudy with Snow 25 -4.1 22 -5.5 90 90 NNW 35 56 30.03 1017 1 1 N/A
12:55 pm 12:55 Cloudy with Heavy Snow 24 -4.6 21 -6 90 90 NNW 33 54 30.06 1018 0 0 N/A
1:15 pm 13:15 Cloudy with Snow 23 -5 20 -6.5 89 89 NNW 35 56 30.08 1019 1 1 N/A
1:35 pm 13:35 Cloudy with Snow 22 -5.3 19 -7 88 88 NNW 28 44 30.11 1020 1 1 N/A
1:55 pm 13:55 Windy with Snow Likely 23 -5.1 19 -7.3 85 85 NNW 29 46 30.11 1020 1 2 N/A
2:15 pm 14:15 Windy with Snow Likely 23 -4.9 17 -8.1 79 79 NNW 36 57 30.12 1020 2 3 N/A
2:35 pm 14:35 Cloudy with Haze 23 -5.1 16 -8.8 76 76 NNW 31 50 30.15 1021 2 3 N/A
2:55 pm 14:55 Cloudy 23 -4.8 16 -9 73 73 NNW 21 33 30.15 1021 7 11 N/A
3:15 pm 15:15 Cloudy with Haze 24 -4.7 16 -8.8 73 73 NW 29 46 30.17 1022 5 8 N/A
3:35 pm 15:35 Cloudy 24 -4.5 16 -9.1 71 71 NW 25 41 30.18 1022 7 11 N/A
3:55 pm 15:55 Cloudy 24 -4.2 17 -8.6 72 72 NW 24 39 30.19 1022 10 16 N/A
4:15 pm 16:15 Partly Cloudy 24 -4.3 16 -9 70 70 NW 24 39 30.20 1023 10 16 N/A
4:35 pm 16:35 Sunny 25 -4.1 16 -9.1 69 69 NW 26 43 30.20 1023 10 16 N/A
4:55 pm 16:55 Sunny 24 -4.5 15 -9.6 68 68 NW 26 43 30.21 1023 10 16 N/A
5:15 pm 17:15 Sunny 24 -4.6 15 -9.6 68 68 NW 23 37 30.23 1024 10 16 N/A
5:35 pm 17:35 Clear 23 -4.8 14 -10 67 67 NW 22 35 30.23 1024 10 16 N/A
5:55 pm 17:55 Clear 23 -5 14 -10.1 68 68 NW 23 37 30.25 1025 10 16 N/A
6:15 pm 18:15 Clear 23 -5.1 13 -10.3 67 67 NW 20 31 30.27 1025 10 16 N/A
6:35 pm 18:35 Clear 22 -5.5 13 -10.5 68 68 NW 18 30 30.28 1025 10 16 N/A
6:55 pm 18:55 Clear 22 -5.6 13 -10.7 68 68 NW 18 30 30.28 1025 10 16 N/A
7:15 pm 19:15 Clear 21 -6 12 -10.9 69 69 NW 17 28 30.28 1026 10 16 N/A
7:35 pm 19:35 Clear 20 -6.5 12 -11 71 71 NW 16 26 30.29 1026 10 16 N/A
7:55 pm 19:55 Clear 20 -6.5 12 -11 71 71 NW 16 26 30.29 1026 10 16 N/A
8:15 pm 20:15 Clear 20 -6.5 12 -11.2 70 70 NW 15 24 30.29 1026 10 16 N/A
8:35 pm 20:35 Clear 20 -6.5 11 -11.5 68 68 WNW 16 26 30.29 1026 10 16 N/A
8:55 pm 20:55 Clear 20 -6.7 11 -11.5 69 69 NW 17 28 30.29 1026 10 16 N/A
9:15 pm 21:15 Clear 20 -6.7 11 -11.5 69 69 NW 15 24 30.29 1026 10 16 N/A
9:35 pm 21:35 Clear 20 -6.8 11 -11.6 69 69 NW 14 22 30.29 1026 10 16 N/A
9:55 pm 21:55 Clear 20 -6.5 11 -11.7 67 67 NW 16 26 30.29 1026 10 16 N/A
10:15 pm 22:15 Clear 20 -6.6 10 -12 66 66 WNW 16 26 30.28 1025 10 16 N/A
10:35 pm 22:35 Clear 20 -6.6 10 -12 66 66 NW 15 24 30.27 1025 10 16 N/A
10:55 pm 22:55 Clear 20 -6.6 10 -12.1 65 65 WNW 14 22 30.27 1025 10 16 N/A
11:15 pm 23:15 Clear 19 -7 10 -12.2 67 67 WNW 13 20 30.27 1025 10 16 N/A
11:35 pm 23:35 Partly Cloudy 19 -7 10 -12.5 65 65 WNW 13 20 30.27 1025 10 16 N/A
11:55 pm 23:55 Partly Cloudy 19 -7 10 -12.5 65 65 WNW 12 19 30.27 1025 10 16 N/A

Powered by AerisWeather